Guernsey, United Kingdom

10:08 AM BST on May 27, 2017 (GMT +0100)
Guernsey

Weather History for EGJB - October, 2011

Change the Weather History Date:

Friday, October 7, 2011

  Actual Average Record
Temperature  
Mean Temperature 56 °F -  
Max Temperature 58 °F 56 °F 64 °F (2010)
Min Temperature 53 °F 50 °F 46 °F (2016)
Degree Days  
Heating Degree Days 10    
Growing Degree Days 6 (Base 50)    
Moisture  
Dew Point 46 °F    
Average Humidity 70    
Maximum Humidity 77    
Minimum Humidity 55    
Precipitation  
Precipitation 0.00 in - - ()
Sea Level Pressure  
Sea Level Pressure 30.21 in    
Wind  
Wind Speed 21 mph ()    
Max Wind Speed 28 mph    
Max Gust Speed 37 mph    
Visibility 7.0 miles    
Events Rain    
Averages and records for this station are not official NWS values.
T = Trace of Precipitation, MM = Missing Value Source: Averaged Metar Reports

Daily Weather History Graph

Daily Weather History Graph

Search for Another Location

Airport or City:

Trip Planner

Search our weather history database for the weather conditions in past years. The results will help you decide how hot, cold, wet, or windy it might be!

Date:

Astronomy

Oct. 07, 2011 Rise Set
Actual Time 7:18 AM BST 6:37 PM BST
Civil Twilight 6:46 AM BST 7:09 PM BST
Nautical Twilight 6:09 AM BST 7:46 PM BST
Astronomical Twilight 5:32 AM BST 8:23 PM BST
Moon 4:32 PM BST (10/7) 2:30 AM BST (10/7)
Length of Visible Light 12h 22m
Length of Day
11h 18m
Waxing Gibbous, 81% of the Moon is Illuminated
Oct 7
Waxing Gibbous
Oct 12
Full
Oct 20
Last Quarter
Oct 26
New
Nov 2
First Quarter

Hourly Weather History & Observations

Time (BST) Temp. Dew Point Humidity Pressure Visibility Wind Dir Wind Speed Gust Speed Precip Events Conditions
1:00 AM 54 °F 43 °F 55% 30.11 in 22 mi WNW 26.5 mph - -   Partly Cloudy
3:50 AM 53.6 °F 44.6 °F 72% 30.12 in 6.2 mi WNW 27.6 mph - N/A   Scattered Clouds
4:00 AM 54 °F 45 °F 62% 30.13 in 19 mi WNW 27.6 mph - - Rain Light Rain Showers
4:20 AM 55.4 °F 44.6 °F 67% 30.12 in 6.2 mi WNW 24.2 mph 36.8 mph N/A   Mostly Cloudy
4:50 AM 55.4 °F 46.4 °F 72% 30.12 in 6.2 mi WNW 26.5 mph - N/A   Scattered Clouds
5:20 AM 55.4 °F 46.4 °F 72% 30.12 in 6.2 mi WNW 24.2 mph 35.7 mph N/A   Mostly Cloudy
5:50 AM 55.4 °F 46.4 °F 72% 30.15 in 6.2 mi WNW 24.2 mph - N/A   Mostly Cloudy
6:20 AM 53.6 °F 46.4 °F 77% 30.15 in 6.2 mi WNW 24.2 mph - N/A   Mostly Cloudy
6:50 AM 55.4 °F 44.6 °F 67% 30.15 in 6.2 mi WNW 24.2 mph - N/A   Mostly Cloudy
7:00 AM 55 °F 45 °F 60% 30.17 in 16 mi WNW 24.2 mph - -   Mostly Cloudy
7:20 AM 55.4 °F 44.6 °F 67% 30.15 in 6.2 mi WNW 24.2 mph 36.8 mph N/A   Mostly Cloudy
7:50 AM 55.4 °F 46.4 °F 72% 30.15 in 6.2 mi WNW 24.2 mph - N/A   Mostly Cloudy
8:20 AM 55.4 °F 44.6 °F 67% 30.18 in 6.2 mi NW 21.9 mph - N/A   Mostly Cloudy
8:50 AM 55.4 °F 44.6 °F 67% 30.18 in 6.2 mi WNW 19.6 mph - N/A   Mostly Cloudy
9:20 AM 55.4 °F 44.6 °F 67% 30.18 in 6.2 mi WNW 20.7 mph - N/A   Mostly Cloudy
9:50 AM 55.4 °F 46.4 °F 72% 30.21 in 6.2 mi WNW 19.6 mph - N/A Rain Light Rain Showers
10:00 AM 55 °F 47 °F 67% 30.22 in 19 mi WNW 19.6 mph - - Rain Light Rain Showers
10:20 AM 55.4 °F 46.4 °F 72% 30.21 in 6.2 mi WNW 23.0 mph - N/A   Mostly Cloudy
10:50 AM 55.4 °F 48.2 °F 77% 30.21 in 6.2 mi WNW 17.3 mph - N/A   Mostly Cloudy
11:20 AM 55.4 °F 46.4 °F 72% 30.21 in 6.2 mi NW 19.6 mph - N/A   Mostly Cloudy
11:50 AM 55.4 °F 46.4 °F 72% 30.21 in 6.2 mi NW 20.7 mph - N/A   Scattered Clouds
12:20 PM 55.4 °F 46.4 °F 72% 30.21 in 6.2 mi WNW 19.6 mph - N/A   Partly Cloudy
12:50 PM 57.2 °F 48.2 °F 72% 30.24 in 6.2 mi WNW 19.6 mph - N/A   Partly Cloudy
1:00 PM 56 °F 47 °F 64% 30.24 in 25 mi WNW 19.6 mph - -   Partly Cloudy
1:20 PM 57.2 °F 48.2 °F 72% 30.21 in 6.2 mi WNW 21.9 mph - N/A   Partly Cloudy
1:50 PM 57.2 °F 48.2 °F 72% 30.21 in 6.2 mi WNW 21.9 mph - N/A   Partly Cloudy
2:20 PM 59.0 °F 46.4 °F 63% 30.24 in 6.2 mi WNW 23.0 mph - N/A   Partly Cloudy
2:50 PM 57.2 °F 48.2 °F 72% 30.21 in 6.2 mi WNW 21.9 mph - N/A   Partly Cloudy
3:20 PM 57.2 °F 48.2 °F 72% 30.24 in 6.2 mi WNW 19.6 mph - N/A   Scattered Clouds
3:50 PM 57.2 °F 48.2 °F 72% 30.21 in 6.2 mi WNW 19.6 mph - N/A   Scattered Clouds
4:00 PM 57 °F 48 °F 64% 30.24 in 28 mi WNW 19.6 mph - -   Mostly Cloudy
4:20 PM 57.2 °F 48.2 °F 72% 30.24 in 6.2 mi WNW 20.7 mph - N/A   Mostly Cloudy
4:50 PM 55.4 °F 44.6 °F 67% 30.24 in 6.2 mi WNW 19.6 mph - N/A   Partly Cloudy
5:20 PM 57.2 °F 48.2 °F 72% 30.24 in 6.2 mi NW 17.3 mph - N/A   Partly Cloudy
5:50 PM 55.4 °F 48.2 °F 77% 30.24 in 6.2 mi WNW 18.4 mph - N/A   Partly Cloudy
6:20 PM 55.4 °F 46.4 °F 72% 30.24 in 6.2 mi WNW 20.7 mph - N/A   Scattered Clouds
6:50 PM 55.4 °F 46.4 °F 72% 30.24 in 6.2 mi NW 20.7 mph - N/A   Partly Cloudy
7:00 PM 56 °F 46 °F 60% 30.27 in 31 mi NW 20.7 mph - -   Partly Cloudy
7:20 PM 55.4 °F 44.6 °F 67% 30.27 in 6.2 mi NW 18.4 mph - N/A   Partly Cloudy
7:50 PM 55.4 °F 44.6 °F 67% 30.27 in 6.2 mi NW 19.6 mph - N/A   Partly Cloudy
8:20 PM 55.4 °F 44.6 °F 67% 30.30 in 6.2 mi NW 18.4 mph - N/A   Partly Cloudy
8:50 PM 55.4 °F 46.4 °F 72% 30.30 in 6.2 mi NW 17.3 mph - N/A   Partly Cloudy
9:20 PM 55.4 °F 44.6 °F 67% 30.30 in 6.2 mi NW 16.1 mph - N/A   Partly Cloudy
9:50 PM 53.6 °F 46.4 °F 77% 30.30 in 6.2 mi NW 13.8 mph - N/A   Partly Cloudy
10:20 PM 53.6 °F 46.4 °F 77% 30.30 in 6.2 mi NW 18.4 mph - N/A   Partly Cloudy
10:50 PM 53.6 °F 46.4 °F 77% 30.30 in 6.2 mi NW 17.3 mph - N/A   Partly Cloudy
11:20 PM 53.6 °F 46.4 °F 77% 30.30 in 6.2 mi NW 15.0 mph - N/A   Partly Cloudy